Regional Weather Roundup
Issued by NWS Sterling, VA

Home | Current Version | Previous Version | Graphics & Text | Print | Product List | Glossary On
Versions: 1 2 3 4 5 6 7 8 9 10 11 12 13 14 15 16 17 18 19 20 21 22 23 24 25 26 27 28 29 30 31 32 33 34 35 36 37 38 39 40 41 42 43 44 45 46 47 48 49 50
708
ASUS41 KLWX 062210
RWRLWX

REGIONAL WEATHER ROUNDUP
NATIONAL WEATHER SERVICE BALTIMORE MD/WASHINGTON DC
500 PM EST SAT FEB 06 2016

Note: "FAIR" indicates few or no clouds below 12,000 feet
with no significant weather and/or obstructions to visibility.
 TC=TEMPERATURE CELSIUS

 * =Non NWS site. Station does not report precipitation (e.g. rain,
    snow, etc.), thunder, or fog.

DCZ001-MDZ009-015-VAZ040>042-051-053>054-062300-
WASHINGTON METRO

CITY           SKY/WX    TMP DP  RH WIND       PRES   REMARKS
WASHINGTON NAT FAIR      42  21  43 S6        30.32R
DULLES         MOCLDY    41  19  41 S8        30.30R
ANDREWS AFB    CLEAR     41  20  43 S7        30.29S
FT BELVOIR     FAIR      43  16  34 S5        30.30S
QUANTICO       FAIR      42  28  57 S13       30.33R
LEESBURG*      FAIR      43  25  49 S9        30.30R
MANASSAS*      CLEAR     45  16  31 SW7       30.30S
GAITHERSBURG*  PTCLDY    41  18  38 SW3       30.32S

$$

MDZ006>007-011-014-062300-
BALTIMORE METRO

CITY           SKY/WX    TMP DP  RH WIND       PRES   REMARKS
BWI AIRPORT    PTCLDY    42  17  36 SW6       30.30S
MD SCIENCE CTR   N/A     43  17  35 MISG      30.29R
MARTIN STATE   PTCLDY    39  30  70 SE10      30.33S
ANNAPOLIS      CLEAR     40  23  50 S8        30.32S
FORT MEADE*    CLEAR     39  19  45 W5        30.33R

$$

MDZ012-015-019>023-062300-
MARYLAND EASTERN SHORE

CITY           SKY/WX    TMP DP  RH WIND       PRES   REMARKS
OCEAN CITY     CLEAR     39  26  59 CALM      30.33F
SALISBURY      CLEAR     42  22  44 CALM      30.33R
BAY BRIDGE AP*   N/A     41  19  42 CALM      30.32S
EASTON*        MOCLDY    41  19  42 W8        30.35F

$$

MDZ017>025-062300-
SOUTHERN MARYLAND

CITY           SKY/WX    TMP DP  RH WIND       PRES   REMARKS
PATUXENT RIVER MOCLDY    39  24  55 SE8       30.33S
ST INIGOES     CLEAR     41  23  48 SE5       30.32F
LEONARDTOWN*   CLEAR     41  23  48 CALM      30.34R

$$

MDZ003>005-062300-
NORTH CENTRAL MARYLAND

CITY           SKY/WX    TMP DP  RH WIND       PRES   REMARKS
FREDERICK*     CLEAR     39  27  60 SW5       30.31S
HAGERSTOWN APT CLEAR     41  18  39 S10       30.25S
WESTMINSTER*   PTCLDY    39  27  60 SW5       30.27S

$$

MDZ501>502-062300-
WESTERN MARYLAND

CITY           SKY/WX    TMP DP  RH WIND       PRES   REMARKS
OAKLAND*       CLEAR     34  14  44 W9        30.15S WCI  26
CUMBERLAND*    CLEAR     46  19  34 S3        30.25S

$$

VAZ025>031-062300-
SHENANDOAH VALLEY

CITY           SKY/WX    TMP DP  RH WIND       PRES   REMARKS
WINCHESTER*    FAIR      41  21  45 S3        30.25S
FRONT ROYAL*   FAIR      43  14  31 S3        30.24S
LURAY*         FAIR      41  18  38 S6        30.24F
NEW MARKET*    FAIR      41  19  40 S6        30.24S
STAUNTON*      FAIR      44  19  37 S6        30.26S
WAYNESBORO*    FAIR      40  13  33 MISG      30.24F

$$

WVZ021-048>050-054>055-062300-
EASTERN WEST VIRGINIA PANHANDLE

CITY           SKY/WX    TMP DP  RH WIND       PRES   REMARKS
MARTINSBURG    FAIR      41  18  39 SE7       30.25S
PETERSBURG*    FAIR      44  22  42 CALM      30.22S

$$

VAZ036>039-050-062300-
CENTRAL FOOTHILLS

CITY           SKY/WX    TMP DP  RH WIND       PRES   REMARKS
CHARLOTTESVILL FAIR      43  17  35 S7        30.27S
CULPEPER*      FAIR      42  18  37 SW5       30.30S
ORANGE*        FAIR      43  19  39 CALM      30.31S
GORDONSVILLE*  FAIR      41  20  43 SW5       30.29S
WARRENTON*     FAIR      43  22  42 S5        30.29S

$$

VAZ055>057-062300-
NORTH AND CENTRAL PIEDMONT

CITY           SKY/WX    TMP DP  RH WIND       PRES   REMARKS
FREDERICKSBRG* FAIR      43  21  41 SW7       30.31S
STAFFORD*      FAIR      43  15  33 S3        30.35S

$$

NCZ024-NYZ072-PAZ021-071-VAZ022-071-062300-
OTHER REGIONAL OBSERVATIONS

CITY           SKY/WX    TMP DP  RH WIND       PRES   REMARKS
NEW YORK CITY  PTCLDY    38  19  46 MISG      30.30F
PHILADELPHIA   MOCLDY    41  21  44 SW8       30.31F
PITTSBURGH     CLOUDY    41  14  33 SW10      30.19S
ROANOKE        MOCLDY    42  19  39 SE9       30.28S
RICHMOND       FAIR      43  19  38 S5        30.32S
RALEIGH        PTCLDY    46  19  34 NE5       30.32S

$$

ANZ530>537-062300-
MARINE OBSERVATIONS

STATION/POSITION TIME  TEMP    WIND        PRES
                       AIR SEA DIR/SP/G
                 (UTC) (F)     (DEG/KT/KT) (MB)
THOMAS PT LIGHT  2200   39 40  180/ 12/ 12 1027.2S
BALT KEY BRIDGE  2100   40     110/  8/ 11 1026.2F
COVE POINT       2100   38     180/ 10/ 10 1027.6F
LEWISETTA        2100   39 42  120/  9/ 10 1026.9S
SOLOMONS ISLAND  2100   40 42  130/  8/  9   N/A

$$





USA.gov is the U.S. government's official web portal to all federal, state and local government web resources and services.